TimeMST,TemperatureF,Dew PointF,Humidity,Sea Level PressureIn,VisibilityMPH,Wind Direction,Wind SpeedMPH,Gust SpeedMPH,PrecipitationIn,Events,Conditions,WindDirDegrees,DateUTC
12:56 AM,25.0,17.1,72,30.38,-9999.0,WSW,5.8,-,N/A,,Unknown,240,2014-01-15 07:56:00
1:56 AM,21.9,15.1,75,30.38,-9999.0,West,6.9,-,N/A,,Unknown,270,2014-01-15 08:56:00
2:56 AM,23.0,15.1,72,30.35,-9999.0,WSW,8.1,-,N/A,,Unknown,240,2014-01-15 09:56:00
3:56 AM,25.0,16.0,69,30.32,-9999.0,WSW,10.4,-,N/A,,Unknown,240,2014-01-15 10:56:00
4:56 AM,24.1,16.0,71,30.29,-9999.0,WSW,11.5,-,N/A,,Unknown,240,2014-01-15 11:56:00
5:56 AM,21.9,15.1,75,30.30,-9999.0,WSW,11.5,-,N/A,,Unknown,240,2014-01-15 12:56:00
6:56 AM,24.1,16.0,71,30.28,-9999.0,WSW,10.4,-,N/A,,Unknown,240,2014-01-15 13:56:00
7:56 AM,28.0,18.0,66,30.27,-9999.0,WSW,6.9,-,N/A,,Unknown,240,2014-01-15 14:56:00
8:56 AM,37.0,19.9,50,30.25,-9999.0,SW,11.5,-,N/A,,Unknown,220,2014-01-15 15:56:00
9:56 AM,44.1,19.0,37,30.21,-9999.0,SSW,10.4,-,N/A,,Unknown,200,2014-01-15 16:56:00
10:56 AM,46.0,17.1,31,30.16,-9999.0,SSW,13.8,-,N/A,,Unknown,210,2014-01-15 17:56:00
11:56 AM,52.0,16.0,24,30.07,-9999.0,SW,11.5,-,N/A,,Unknown,230,2014-01-15 18:56:00
12:56 PM,57.0,14.0,18,30.01,-9999.0,WSW,9.2,-,N/A,,Unknown,240,2014-01-15 19:56:00
1:41 PM,59.0,14.0,17,30.02,-9999.0,NW,18.4,-,N/A,,Unknown,320,2014-01-15 20:41:00
1:56 PM,59.0,14.0,17,29.99,-9999.0,NNW,16.1,-,N/A,,Unknown,330,2014-01-15 20:56:00
2:56 PM,59.0,15.1,18,29.98,-9999.0,NW,8.1,-,N/A,,Unknown,320,2014-01-15 21:56:00
3:56 PM,55.0,16.0,22,29.97,-9999.0,NW,6.9,-,N/A,,Unknown,310,2014-01-15 22:56:00
4:56 PM,46.9,17.1,30,29.99,-9999.0,WNW,9.2,-,N/A,,Unknown,290,2014-01-15 23:56:00
5:56 PM,37.0,17.1,44,30.03,-9999.0,WNW,10.4,-,N/A,,Unknown,290,2014-01-16 00:56:00
6:56 PM,34.0,17.1,50,30.04,-9999.0,WNW,10.4,-,N/A,,Unknown,300,2014-01-16 01:56:00
7:56 PM,35.1,17.1,48,30.04,-9999.0,WNW,10.4,-,N/A,,Unknown,290,2014-01-16 02:56:00
8:56 PM,32.0,17.1,54,30.03,-9999.0,WNW,10.4,-,N/A,,Unknown,300,2014-01-16 03:56:00
9:56 PM,32.0,18.0,56,30.02,-9999.0,West,5.8,-,N/A,,Unknown,270,2014-01-16 04:56:00
10:56 PM,30.9,18.0,59,30.03,-9999.0,WNW,6.9,-,N/A,,Unknown,290,2014-01-16 05:56:00
11:56 PM,28.9,17.1,61,30.02,-9999.0,WNW,9.2,-,N/A,,Unknown,300,2014-01-16 06:56:00